TimeMDT,TemperatureF,Dew PointF,Humidity,Sea Level PressureIn,VisibilityMPH,Wind Direction,Wind SpeedMPH,Gust SpeedMPH,PrecipitationIn,Events,Conditions,WindDirDegrees,DateUTC
12:53 AM,42.1,33.1,70,29.86,10.0,SSW,5.8,-,N/A,,Clear,210,2013-09-24 06:53:00
1:53 AM,39.9,32.0,73,29.88,10.0,Calm,Calm,-,N/A,,Clear,0,2013-09-24 07:53:00
2:53 AM,37.9,30.9,76,29.89,10.0,SSW,4.6,-,N/A,,Clear,210,2013-09-24 08:53:00
3:53 AM,35.1,30.9,85,29.91,10.0,WSW,4.6,-,N/A,,Clear,250,2013-09-24 09:53:00
4:53 AM,36.0,30.0,79,29.92,10.0,Calm,Calm,-,N/A,,Clear,0,2013-09-24 10:53:00
5:53 AM,33.1,28.9,85,29.93,10.0,NW,4.6,-,N/A,,Clear,310,2013-09-24 11:53:00
6:53 AM,33.1,28.9,85,29.95,10.0,West,3.5,-,N/A,,Clear,270,2013-09-24 12:53:00
7:53 AM,41.0,34.0,76,29.95,9.0,Calm,Calm,-,N/A,,Clear,0,2013-09-24 13:53:00
8:53 AM,50.0,35.1,57,29.94,10.0,Calm,Calm,-,N/A,,Clear,0,2013-09-24 14:53:00
9:53 AM,57.9,36.0,44,29.93,10.0,Calm,Calm,-,N/A,,Clear,0,2013-09-24 15:53:00
10:53 AM,64.9,37.0,36,29.91,10.0,Calm,Calm,-,N/A,,Clear,0,2013-09-24 16:53:00
11:53 AM,70.0,30.9,24,29.88,10.0,SW,4.6,-,N/A,,Clear,220,2013-09-24 17:53:00
12:53 PM,73.0,32.0,22,29.86,10.0,SW,10.4,19.6,N/A,,Clear,220,2013-09-24 18:53:00
1:53 PM,73.0,30.9,21,29.82,10.0,SW,8.1,-,N/A,,Clear,230,2013-09-24 19:53:00
2:53 PM,73.0,30.0,20,29.80,10.0,Calm,Calm,-,N/A,,Clear,0,2013-09-24 20:53:00
3:53 PM,73.9,30.0,20,29.78,10.0,Calm,Calm,-,N/A,,Clear,0,2013-09-24 21:53:00
4:53 PM,72.0,34.0,25,29.76,10.0,Variable,3.5,-,N/A,,Clear,0,2013-09-24 22:53:00
5:53 PM,70.0,36.0,29,29.75,10.0,East,9.2,-,N/A,,Partly Cloudy,90,2013-09-24 23:53:00
6:53 PM,66.9,37.9,34,29.75,10.0,East,9.2,-,N/A,,Overcast,80,2013-09-25 00:53:00
7:53 PM,64.9,37.0,36,29.73,10.0,East,8.1,-,N/A,,Overcast,80,2013-09-25 01:53:00
8:53 PM,62.1,37.9,41,29.70,10.0,ENE,9.2,-,N/A,,Scattered Clouds,70,2013-09-25 02:53:00
9:53 PM,62.1,37.9,41,29.66,10.0,ENE,11.5,-,N/A,,Partly Cloudy,70,2013-09-25 03:53:00
10:53 PM,61.0,39.0,44,29.63,10.0,East,10.4,-,N/A,,Scattered Clouds,80,2013-09-25 04:53:00
11:53 PM,60.1,39.9,47,29.60,10.0,ENE,8.1,-,N/A,,Mostly Cloudy,70,2013-09-25 05:53:00